Change the Weather History Date:

Wednesday, May 28, 2014

  Actual Average Record
Temperature  
Mean Temperature 65 °F 68 °F  
Max Temperature 74 °F 77 °F 94 °F (1941)
Min Temperature 55 °F 58 °F 41 °F (1961)
Degree Days  
Heating Degree Days 0 2  
Month to date heating degree days 46 107  
Since 1 July heating degree days 4842 4597  
Cooling Degree Days 0 4  
Month to date cooling degree days 72 63  
Year to date cooling degree days 81 76  
Growing Degree Days 15 (Base 50)    
Moisture  
Dew Point 58 °F    
Average Humidity 80    
Maximum Humidity 87    
Minimum Humidity 73    
Precipitation  
Precipitation 0.61 in 0.12 in 2.28 in (1982)
Month to date precipitation 2.91 3.33  
Year to date precipitation 22.50 16.36  
Snow  
Snow 0.00 in 0.00 in 0.00 in (1870)
Month to date snowfall 0.0 0.0  
Since 1 July snowfall 68.0 22.4  
Snow Depth 0.00 in    
Sea Level Pressure  
Sea Level Pressure 29.96 in    
Wind  
Wind Speed 10 mph (East)    
Max Wind Speed 18 mph    
Max Gust Speed 24 mph    
Visibility 7 miles    
Events Rain , Thunderstorm    
T = Trace of Precipitation, MM = Missing Value Source: NWS Daily Summary

Daily Weather History Graph

Daily Weather History Graph

Search for Another Location

Airport or City:

Trip Planner

Search our weather history database for the weather conditions in past years. The results will help you decide how hot, cold, wet, or windy it might be!

Date:

Astronomy

May. 28, 2014 Rise Set
Actual Time 5:36 AM EDT 8:20 PM EDT
Civil Twilight 5:04 AM EDT 8:52 PM EDT
Nautical Twilight 4:25 AM EDT 9:32 PM EDT
Astronomical Twilight 3:39 AM EDT 10:17 PM EDT
Moon 5:40 AM EDT (5/28) 8:16 PM EDT (5/28)
Length of Visible Light 15h 47m
Length of Day
14h 43m
Waning Crescent, 0% of the Moon is Illuminated
May 28
Waning Crescent
May 28
New
Jun 5
First Quarter
Jun 13
Full
Jun 19
Last Quarter

Hourly Weather History & Observations

Time (EDT) Temp. Dew Point Humidity Pressure Visibility Wind Dir Wind Speed Gust Speed Precip Events Conditions
12:54 AM 70.0 °F 64.0 °F 81% 29.84 in 8.0 mi SW 9.2 mph - N/A   Overcast
1:54 AM 69.1 °F 64.0 °F 84% 29.83 in 8.0 mi WSW 6.9 mph - N/A   Overcast
2:54 AM 69.1 °F 64.0 °F 84% 29.83 in 8.0 mi SW 6.9 mph - N/A   Overcast
3:54 AM 69.1 °F 64.0 °F 84% 29.82 in 8.0 mi WSW 5.8 mph - N/A   Overcast
4:54 AM 68.0 °F 63.0 °F 84% 29.81 in 8.0 mi SW 3.5 mph - N/A   Mostly Cloudy
5:01 AM 69.1 °F 63.0 °F 81% 29.81 in 7.0 mi SW 4.6 mph - N/A   Overcast
5:25 AM 68.0 °F 63.0 °F 84% 29.81 in 6.0 mi SW 4.6 mph - N/A   Haze
5:54 AM 69.1 °F 63.0 °F 81% 29.82 in 6.0 mi WSW 5.8 mph - N/A   Haze
6:18 AM 69.1 °F 63.0 °F 81% 29.82 in 8.0 mi Calm Calm - N/A   Mostly Cloudy
6:32 AM 69.1 °F 63.0 °F 81% 29.83 in 10.0 mi SW 3.5 mph - N/A   Scattered Clouds
6:54 AM 70.0 °F 64.0 °F 81% 29.83 in 10.0 mi WSW 4.6 mph - N/A   Scattered Clouds
7:54 AM 73.0 °F 64.0 °F 73% 29.86 in 10.0 mi Calm Calm - N/A   Mostly Cloudy
8:43 AM 72.0 °F 64.9 °F 78% 29.88 in 9.0 mi ESE 5.8 mph - N/A   Overcast
8:54 AM 71.6 °F 64.4 °F 78% 29.88 in 3.0 mi East 3.5 mph - N/A Rain Light Rain
9:07 AM 71.1 °F 64.9 °F 81% 29.88 in 5.0 mi East 4.6 mph - 0.04 in   Haze
9:36 AM 72.0 °F 64.9 °F 78% 29.89 in 7.0 mi East 6.9 mph - 0.04 in   Overcast
9:54 AM 68.0 °F 64.0 °F 87% 29.90 in 7.0 mi ENE 11.5 mph - 0.04 in   Overcast
9:56 AM 68.0 °F 63.0 °F 84% 29.90 in 5.0 mi ENE 9.2 mph - N/A   Haze
10:00 AM 66.9 °F 63.0 °F 87% 29.90 in 4.0 mi ENE 11.5 mph - N/A   Overcast
10:10 AM 64.9 °F 61.0 °F 87% 29.91 in 2.5 mi East 13.8 mph - N/A   Overcast
10:26 AM 64.9 °F 61.0 °F 87% 29.91 in 3.0 mi East 11.5 mph - N/A   Overcast
10:36 AM 64.9 °F 60.1 °F 84% 29.92 in 3.0 mi East 12.7 mph - N/A   Overcast
10:54 AM 64.9 °F 60.1 °F 84% 29.92 in 4.0 mi East 12.7 mph - N/A   Overcast
11:40 AM 64.0 °F 59.0 °F 84% 29.93 in 6.0 mi East 8.1 mph - 0.00 in   Overcast
11:54 AM 63.0 °F 59.0 °F 87% 29.93 in 5.0 mi East 10.4 mph - 0.00 in Rain Light Rain
12:01 PM 63.0 °F 59.0 °F 87% 29.93 in 4.0 mi East 9.2 mph - 0.00 in Rain Rain
12:39 PM 62.1 °F 57.9 °F 86% 29.94 in 2.0 mi East 10.4 mph - 0.05 in Rain Heavy Rain
12:42 PM 62.1 °F 57.9 °F 86% 29.94 in 1.0 mi East 10.4 mph - 0.06 in Rain Heavy Rain
12:45 PM 62.1 °F 57.9 °F 86% 29.94 in 1.5 mi East 9.2 mph - 0.10 in Rain , Thunderstorm Heavy Thunderstorms and Rain
12:48 PM 62.6 °F 57.2 °F 82% 29.94 in 0.8 mi East 9.2 mph - 0.16 in Rain , Thunderstorm Heavy Thunderstorms and Rain
12:52 PM 62.6 °F 57.2 °F 82% 29.94 in 1.0 mi East 10.4 mph - 0.27 in Rain , Thunderstorm Heavy Thunderstorms and Rain
12:54 PM 62.1 °F 57.9 °F 86% 29.94 in 1.5 mi East 10.4 mph - 0.32 in Rain , Thunderstorm Heavy Thunderstorms and Rain
1:03 PM 62.1 °F 57.9 °F 86% 29.94 in 2.5 mi East 10.4 mph - 0.08 in Rain Rain
1:08 PM 62.1 °F 57.9 °F 86% 29.94 in 4.0 mi East 9.2 mph - 0.11 in Rain Rain
1:12 PM 62.1 °F 57.9 °F 86% 29.95 in 5.0 mi East 8.1 mph - 0.13 in Rain Light Rain
1:17 PM 62.1 °F 57.9 °F 86% 29.95 in 5.0 mi ENE 8.1 mph - 0.14 in Rain Light Rain
1:22 PM 62.1 °F 57.9 °F 86% 29.95 in 5.0 mi NE 8.1 mph - 0.14 in Rain Light Rain
1:33 PM 61.0 °F 57.9 °F 90% 29.95 in 7.0 mi ENE 5.8 mph - 0.14 in   Overcast
1:37 PM 61.0 °F 57.9 °F 90% 29.95 in 7.0 mi ENE 8.1 mph - 0.14 in Rain Light Rain
1:45 PM 61.0 °F 57.0 °F 87% 29.96 in 3.0 mi ENE 9.2 mph - 0.16 in Rain Light Rain
1:51 PM 60.8 °F 57.2 °F 88% 29.96 in 5.0 mi East 12.7 mph - 0.17 in Rain Rain
1:54 PM 61.0 °F 57.0 °F 87% 29.96 in 5.0 mi East 11.5 mph - 0.18 in Rain Rain
2:05 PM 61.0 °F 57.0 °F 87% 29.96 in 8.0 mi East 10.4 mph - 0.02 in Rain Light Rain
2:50 PM 60.8 °F 55.4 °F 82% 29.97 in 8.0 mi East 10.4 mph - 0.03 in Rain Light Rain
2:54 PM 61.0 °F 55.9 °F 83% 29.97 in 8.0 mi East 11.5 mph - 0.03 in Rain Light Rain
3:27 PM 60.1 °F 55.0 °F 83% 29.99 in 5.0 mi ENE 12.7 mph - 0.03 in Rain Rain
3:36 PM 61.0 °F 55.9 °F 83% 29.99 in 8.0 mi East 11.5 mph - 0.04 in Rain Light Rain
3:42 PM 61.0 °F 55.9 °F 83% 29.99 in 10.0 mi East 11.5 mph - 0.04 in Rain Light Rain
3:50 PM 62.6 °F 55.4 °F 77% 29.98 in 10.0 mi East 12.7 mph - 0.04 in   Overcast
3:54 PM 62.1 °F 55.9 °F 80% 29.98 in 10.0 mi East 10.4 mph - 0.04 in   Overcast
4:12 PM 61.0 °F 55.0 °F 81% 29.99 in 10.0 mi ENE 10.4 mph - N/A   Overcast
4:54 PM 60.1 °F 54.0 °F 80% 30.00 in 10.0 mi East 11.5 mph - N/A   Overcast
5:02 PM 59.0 °F 54.0 °F 83% 30.01 in 10.0 mi East 13.8 mph - N/A   Overcast
5:39 PM 59.0 °F 54.0 °F 83% 30.02 in 10.0 mi East 13.8 mph - N/A   Overcast
5:54 PM 59.0 °F 53.1 °F 81% 30.03 in 10.0 mi ENE 11.5 mph - N/A   Overcast
6:23 PM 59.0 °F 53.1 °F 81% 30.04 in 10.0 mi ENE 10.4 mph - N/A   Overcast
6:40 PM 59.0 °F 53.1 °F 81% 30.04 in 8.0 mi East 15.0 mph - N/A   Overcast
6:54 PM 57.9 °F 53.1 °F 84% 30.05 in 7.0 mi East 12.7 mph - N/A   Overcast
7:02 PM 57.9 °F 53.1 °F 84% 30.05 in 6.0 mi East 12.7 mph - N/A   Overcast
7:42 PM 57.9 °F 52.0 °F 81% 30.06 in 7.0 mi East 13.8 mph - N/A   Overcast
7:54 PM 57.0 °F 52.0 °F 83% 30.07 in 7.0 mi East 9.2 mph - N/A   Overcast
8:27 PM 57.0 °F 52.0 °F 83% 30.09 in 5.0 mi East 11.5 mph - N/A   Overcast
8:48 PM 57.2 °F 51.8 °F 82% 30.10 in 9.0 mi ENE 13.8 mph - N/A   Overcast
8:54 PM 57.0 °F 51.1 °F 81% 30.11 in 9.0 mi ENE 11.5 mph - N/A   Overcast
9:23 PM 57.9 °F 51.1 °F 78% 30.12 in 10.0 mi East 17.3 mph - N/A   Overcast
9:54 PM 57.9 °F 51.1 °F 78% 30.13 in 10.0 mi East 17.3 mph - N/A   Overcast
10:07 PM 57.0 °F 51.1 °F 81% 30.13 in 10.0 mi ENE 13.8 mph 21.9 mph N/A   Overcast
10:54 PM 57.0 °F 50.0 °F 77% 30.14 in 10.0 mi East 13.8 mph - N/A   Overcast
11:04 PM 57.0 °F 48.9 °F 74% 30.14 in 10.0 mi East 12.7 mph - N/A   Overcast
11:54 PM 55.9 °F 48.9 °F 77% 30.15 in 10.0 mi East 11.5 mph - N/A   Overcast